Flag for Canada Weather past 2 weeks in Belleville, Ontario, Canada

59 °F

Partly sunny.

Feels Like: 58 °F
Forecast: N/A
Wind: 7 mph from Southwest

Location: Trenton

Current Time: Oct 6, 2015 at 4:49:46 PM

Latest Report: Oct 6, 2015 at 4:00 PM

Visibility: 15 mi

Pressure: 30.03 "Hg

Humidity: 82%

Dew point: 54 °F

Location of BellevilleLocation

Historic Weather in Belleville — Graph


Belleville temperature yesterday

Maximum temperature yesterday: 61 °F (at 2:00 PM)
Minimum temperature yesterday: 46 °F (at 1:00 AM)
Average temperature yesterday: 54 °F

Past Weeks' High & Low Weather Summary

High75 °F (Sep 24, 2:00 PM)100% (Sep 22, 10:00 PM)30.50 "Hg (Sep 22, 10:00 PM)
Low39 °F (Oct 1, 6:00 AM)35% (Sep 26, 1:00 PM)29.91 "Hg (Sep 29, 5:00 PM)
Average57 °F72%30.27 "Hg
* Reported Sep 21 3:00 PM — Oct 6 3:00 PM, Belleville, Weather by CustomWeather, © 2015

Note: Actual official high and low records may vary slightly from our data, if they occured in-between our weather recording intervals... More about our weather records


Belleville weather history for previous 24 hours

Time TempWeatherWind HumidityBarometerVisibility
3:00 PM
Tue, Oct 6
59 °FMore clouds than sun.6 mph82%30.05 "Hg10 mi
2:00 PM59 °FOvercast.7 mph82%30.07 "Hg10 mi
1:00 PM59 °FOvercast.9 mph77%30.09 "Hg15 mi
12:00 PM59 °FOvercast.5 mph72%30.10 "Hg15 mi
11:00 AM57 °FOvercast.5 mph77%30.10 "Hg15 mi
10:00 AM55 °FOvercast.2 mph82%30.11 "Hg15 mi
9:00 AM55 °FOvercast.5 mph82%30.11 "Hg15 mi
8:00 AM54 °FPassing clouds.2 mph88%30.11 "Hg15 mi
7:00 AM54 °FOvercast.3 mph88%30.11 "Hg15 mi
6:00 AM54 °FOvercast.3 mph88%30.11 "Hg15 mi
5:00 AM54 °FOvercast.2 mph88%30.10 "Hg15 mi
4:00 AM54 °FOvercast.No wind88%30.10 "Hg15 mi
3:00 AM54 °FOvercast.No wind88%30.11 "Hg15 mi
2:00 AM54 °FOvercast.2 mph88%30.12 "Hg15 mi
1:00 AM54 °FOvercast.2 mph88%30.13 "Hg15 mi
12:00 AM52 °FPassing clouds.No wind88%30.14 "Hg15 mi
11:00 PM
Mon, Oct 5
54 °FPassing clouds.No wind82%30.14 "Hg15 mi
10:00 PM55 °FPassing clouds.No wind77%30.15 "Hg15 mi
9:00 PM55 °FOvercast.No wind82%30.15 "Hg15 mi
8:00 PM57 °FPassing clouds.2 mph72%30.15 "Hg15 mi
7:00 PM57 °FOvercast.2 mph72%30.15 "Hg15 mi
6:00 PM61 °FOvercast.3 mph59%30.14 "Hg15 mi
5:00 PM61 °FPartly sunny.5 mph59%30.14 "Hg15 mi
4:00 PM61 °FPartly sunny.5 mph59%30.16 "Hg15 mi
Weather by CustomWeather, © 2015

See weather overviewHow to use our weather pages